Погода в Хвалынске

Поиск расширенной информации на нашем сайте:

Полезная информация:

Новости сайта



02.01.2020
Опубликован Долгосрочный прогноз погоды по городам России и ближнего зарубежья на январь 2020 года.
Карты: Прогноз на январь и февраль 2020 года, Сравнение прогнозируемой аномалии приземной температуры воздуха на январь 2020 года по разным моделям.




Погода в Хвалынске - сегодня

Время (UTC), дата Ветер
(°,м/с) 
Видим.   Явления Облачность Т
(°С)
Тd
(°С)
f(%) Тe
(°С)
Pmin
(гПа)
dP
(гПа)
Po
(мм)
O2
(г/м3)
Тmin Tmax R s Состояние
почвы
06 05.03.21 280 (З) 5-11{15}  20000 м  в посл. час снег  10/10 660 м 
[Sc]
+1.2 -2.9 74 -2  997.5  0.5  742  298           
09 05.03.21 270 (З) 4{14}  20000 м    10/10 1080 м 
[Sc]
+2.3 -2.7 69 1000.7  3.2  744  298           
12 05.03.21 340 (С) 10 км    10/10 700 м 
[Sc]
-0.2 -2.8 83 -1  1003.7  747  301           
15 05.03.21 270 (З) 20000 м  {снег}  4/0 средняя 
[Ac As]
-1.1 -4 81 -1  1006.2  2.4  749  303    +3.6  0.0     
18 05.03.21 280 (З) 20000 м  {снег}  4/0 средняя 
[Ac As]
-1.9 -6.9 69 -3  1008.8  2.5  750  305           
21 05.03.21 270 (З) 20000 м    ясно 
-3.6 -8.6 68 -5  1010.3  1.3  751  308           
00 06.03.21 260 (З) 20000 м    ясно 
-4.5 -8.5 74 -6  1011  0.8  752  309           
03 06.03.21 130 (ЮВ) 20000 м    6/0 верхняя 
[Ci fib]
-5.9 -8.6 81 -6  1011.8  0.7  752  311  -6      43  равномерный
сухой снег
100% 
06 06.03.21 310 (СЗ) 20000 м    10/0 верхняя 
[Ci fib]
-3.9 -8.1 73 -6  1012.9  1.1  753  309  -6.4         
09 06.03.21 050 (СВ) 20000 м    10/0 верхняя 
[Ci sp]
-5.2 -8.1 80 -8  1012.8  0.1  753  310           
12 06.03.21 030 (СВ) 20000 м    10/0 средняя 
[As op]
-4.5 -8.1 76 -6  1011.9  -0.9  753  309           
15 06.03.21 360 (С) 20000 м    10/0 средняя 
[Ac und]
-6.4 -8.4 86 -6  1011.4  -0.6  752  311    -2.8       
18 06.03.21 330 (СЗ) 20000 м    ясно 
-7.3 -9.9 82 -7  1010.8  -0.6  752  312           
21 06.03.21 320 (СЗ) 20000 м    ясно 
-8.1 -9.8 88 -8  1010.3  -0.6  751  313           
00 07.03.21 150 (ЮВ) 20000 м    ясно 
-8.9 -11 85 -9  1009.5  -0.8  751  314           
03 07.03.21 320 (СЗ) 20000 м    10/0 верхняя 
[Ci fib]
-13 -13.4 97 -13  1010  0.3  751  319  -13.3      43  равномерный
сухой снег
100% 
06 07.03.21 тихо ()   20000 м    6/0 средняя 
[Ac As]
-13.3 -14.3 92 -13  1010.6  0.6  751  320  -16         
09 07.03.21 280 (З) 20000 м    4/0 средняя 
[Ac lent]
-3.5 -10.6 58 -6  1010.3  751  308           
12 07.03.21 250 (З) 20000 м    6/3 1000 м верхняя 
[Sc|Ci sp]
-3 -11.9 50 -5  1008.9  -1.4  750  307           
15 07.03.21 190 (Ю) 3{11}  20000 м    10/0 верхняя 
[Ci sp]
-5.8 -11.5 64 -8  1007.4  -1.6  749  310    -2.5       
18 07.03.21 190 (Ю) 7-12{12}  20000 м    10/10 600 м 
[Sc]
-4.5 -7.3 81 -9  1004.6  -2.7  747  307           
21 07.03.21 200 (Ю) 6-15{16}  10 км  слаб. снег  10/10 420 м 
[Frnb|Ns]
-4.1 -4.8 95 -8  1000.3  -4.3  744  305           
00 08.03.21 220 (ЮЗ) 8-15{16}  20000 м  позёмок{снег}  10/0 средняя 
[Ac As]
-3.1 -4.7 89 -8  997.5  -2.7  742  303           
03 08.03.21 220 (ЮЗ) 6-12{15}  20000 м  позёмок  10/6 600 м средняя 
[Sc|As op]
-1.5 -3.9 84 -5  997.3  0.1  742  301  -6.2    44  равномерный
сухой снег
100% 
06 08.03.21 250 (З) 4{14}  2000 м  снег  10/0 средняя 
[As op]
-1.5 -2.5 93 -4  999.5  2.2  743  301           
Время (UTC), дата Ветер
(°,м/с) 
Видим.   Явления Облачность Т
(°С)
Тd
(°С)
f(%) Тe
(°С)
Pmin
(гПа)
dP
(гПа)
Po
(мм)
O2
(г/м3)
Тmin Tmax R s Состояние
почвы

Для получения пояснительной информации подведите курсор к названию столбца.

ПОГОДА в Хвалынске - архив

Всё, что Вы хотите узнать о погоде в Хвалынске - удобно и подробно!

Выберите нужную дату (начиная с 1 января 2019* года) и нажмите кнопку "Найти".
Будут отображены архивные сводки погоды по пункту Хвалынск, начиная с указанной даты.


Отображать данные в формате CSV (для использования в таблицах Excel)


Внимание! Наш архив погоды предназначен исключительно для личного некоммерческого использования в познавательных целях. Если Вам необходимы официальные справки о состоянии погоды (для производственных, юридических, коммерческих и т.п. целей), обращайтесь в органы Росгидромета.

*Примечание: данная дата относится к архиву по метеостанциям СССР (Россия, СНГ, Балтия).
Архив по метеостанциям Зарубежной Европы и Азии (кроме Китая) хранится 10 дней, по другим регионам земного шара (Китай, Африка, Америка, Австралия, Океания) - 1 день.

Хвалынск - район местоположения метеостанции


Название, широта, долгота, высота метеостанции:
Хвалынск 52.5°ш. 48.1°д. 88 м над ур. моря [Российская Федерация]

Дополнительная информация

В oтличие oт бoльшинства пoгoдных сайтoв мы публикуем пoдрoбную метеoинфoрмацию в детальнoм прoфессиoнальнoм фoрмате.

Характеристики температуры и влажнoсти вoздуха измеряются на высoте 2 м в тени вдали oт зданий и деревьев.
Скoрoсть ветра измеряется на высoте 10 м (на урoвне рoста челoвека скoрoсть ветра ниже в 1.5-2 раза). Если метеoстанция нахoдится в гoрoде или в лесу, тo скoрoсть ветра занижена на 2-4 м/с пo сравнению с oткрытым местoм. Скoрoсть ветра над акватoриями крупных рек и oзёр, а также на вершинах хoлмoв на 2-5 м/с выше, чем в oбычных услoвиях.
Атмoсфернoе давление в разных тoчках местнoсти мoжет значительнo oтличаться oт давления на метеoстанции, в зависимoсти oт услoвий рельефа (при пoдъёме на 10 м давление пoнижается примернo на 1 мм рт.ст.).